DAL211 FACT-KATL

Flight info

Callsign DAL211
Flight time N/A
Altitude 34000
Route IMSOM1B IMSOM UQ36 APKIN UQ15 OKDOG DCT 30S010E 26S005E 22S000W 16S005W 10S010W/N0500F360 05S015W 00N020W DCT BUVUK/N0493F380 UL435 BUTUX/M085F400 L435 JAINS/N0487F400 AR12 DEDDY DCT HOTHH JJEDI3
Aircraft A359/H-SDE2E3GHIJ3J4J5LM1ORWXY/LB1D1

Departure

Time N/A
Airport Cape Town International Airport (FACT)

Arrival

Time 2026-05-05 09:47
Airport Hartsfield Jackson Atlanta International Airport (KATL)
Time Latitude Longitude Altitude Speed Heading
2026-05-05 09:07 32.85308 -79.91306 40087 ft 367 kts 291°
2026-05-05 09:07 32.86192 -79.94150 40089 ft 367 kts 292°
2026-05-05 09:08 32.88076 -79.99781 40090 ft 367 kts 293°
2026-05-05 09:08 32.89477 -80.04539 40090 ft 373 kts 282°
2026-05-05 09:09 32.90113 -80.10774 40083 ft 389 kts 279°
2026-05-05 09:09 32.90619 -80.16076 40086 ft 402 kts 279°
2026-05-05 09:10 32.91258 -80.22792 40080 ft 416 kts 280°
2026-05-05 09:10 32.91914 -80.29711 40079 ft 428 kts 279°
2026-05-05 09:11 32.92575 -80.36742 40089 ft 427 kts 279°
2026-05-05 09:11 32.93232 -80.43767 40077 ft 427 kts 279°
2026-05-05 09:12 32.93886 -80.50791 40073 ft 427 kts 279°
2026-05-05 09:12 32.94535 -80.57808 40077 ft 426 kts 279°
2026-05-05 09:13 32.95179 -80.64813 40101 ft 425 kts 279°
2026-05-05 09:13 32.95819 -80.71808 40099 ft 425 kts 279°
2026-05-05 09:14 32.96456 -80.78821 40100 ft 425 kts 279°
2026-05-05 09:14 32.97088 -80.85818 40096 ft 425 kts 279°
2026-05-05 09:15 32.97711 -80.92765 40082 ft 425 kts 279°
2026-05-05 09:15 32.98335 -80.99762 40082 ft 425 kts 279°
2026-05-05 09:16 32.98956 -81.06775 40081 ft 425 kts 279°
2026-05-05 09:16 32.99572 -81.13768 40082 ft 425 kts 279°
2026-05-05 09:17 33.00180 -81.20731 40082 ft 425 kts 279°
2026-05-05 09:17 33.00787 -81.27718 40081 ft 425 kts 279°
2026-05-05 09:18 33.01393 -81.34732 40082 ft 425 kts 279°
2026-05-05 09:18 33.01993 -81.41729 40082 ft 425 kts 279°
2026-05-05 09:19 33.02589 -81.48736 40080 ft 425 kts 279°
2026-05-05 09:19 33.03183 -81.55749 40074 ft 425 kts 279°
2026-05-05 09:20 33.03773 -81.62780 40077 ft 425 kts 279°
2026-05-05 09:20 33.04358 -81.69795 40066 ft 425 kts 279°
2026-05-05 09:21 33.04936 -81.76766 40072 ft 425 kts 279°
2026-05-05 09:21 33.05513 -81.83770 40071 ft 424 kts 279°
2026-05-05 09:22 33.06062 -81.90779 40066 ft 425 kts 279°
2026-05-05 09:22 33.06587 -81.97769 40065 ft 425 kts 279°
2026-05-05 09:23 33.07108 -82.04761 39898 ft 419 kts 279°
2026-05-05 09:23 33.07365 -82.08236 39154 ft 421 kts 279°
2026-05-05 09:23 33.07625 -82.11725 38204 ft 425 kts 279°
2026-05-05 09:23 33.07887 -82.15257 37245 ft 428 kts 279°
2026-05-05 09:24 33.08146 -82.18785 36360 ft 429 kts 279°
2026-05-05 09:24 33.08406 -82.22339 35479 ft 429 kts 278°
2026-05-05 09:24 33.08664 -82.25885 34635 ft 430 kts 278°
2026-05-05 09:24 33.08923 -82.29450 33699 ft 430 kts 278°
2026-05-05 09:25 33.09178 -82.32962 32584 ft 434 kts 278°
2026-05-05 09:25 33.09439 -82.36586 31691 ft 434 kts 277°
2026-05-05 09:25 33.09686 -82.40034 30940 ft 431 kts 277°
2026-05-05 09:25 33.09937 -82.43554 30150 ft 430 kts 277°
2026-05-05 09:26 33.10190 -82.47105 29250 ft 428 kts 277°
2026-05-05 09:26 33.10438 -82.50621 28589 ft 422 kts 277°
2026-05-05 09:26 33.10681 -82.54079 28036 ft 415 kts 277°
2026-05-05 09:26 33.10920 -82.57489 27484 ft 413 kts 276°
2026-05-05 09:27 33.11161 -82.60915 26917 ft 413 kts 276°
2026-05-05 09:27 33.11399 -82.64329 26352 ft 412 kts 276°
2026-05-05 09:27 33.11556 -82.66583 25985 ft 411 kts 276°
2026-05-05 09:27 33.11702 -82.68692 25640 ft 410 kts 276°
2026-05-05 09:28 33.11857 -82.70929 25252 ft 408 kts 276°
2026-05-05 09:28 33.12065 -82.73945 24754 ft 407 kts 276°
2026-05-05 09:29 33.12296 -82.77291 24225 ft 405 kts 276°
2026-05-05 09:29 33.12712 -82.80625 24168 ft 414 kts 283°
2026-05-05 09:29 33.13623 -82.83947 24136 ft 427 kts 293°
2026-05-05 09:29 33.14930 -82.87134 24011 ft 428 kts 297°
2026-05-05 09:30 33.16298 -82.90241 23777 ft 427 kts 297°
2026-05-05 09:30 33.17706 -82.93415 23520 ft 426 kts 297°
2026-05-05 09:30 33.19072 -82.96491 23265 ft 425 kts 297°
2026-05-05 09:30 33.20463 -82.99622 22993 ft 424 kts 297°
2026-05-05 09:31 33.21842 -83.02731 22727 ft 423 kts 297°
2026-05-05 09:31 33.23217 -83.05831 22466 ft 423 kts 297°
2026-05-05 09:31 33.24584 -83.08916 22043 ft 417 kts 297°
2026-05-05 09:31 33.25925 -83.11943 21458 ft 408 kts 297°
2026-05-05 09:32 33.27245 -83.14927 20800 ft 402 kts 297°
2026-05-05 09:32 33.28548 -83.17874 20159 ft 397 kts 297°
2026-05-05 09:32 33.29830 -83.20777 19501 ft 393 kts 296°
2026-05-05 09:32 33.31095 -83.23644 18852 ft 389 kts 296°
2026-05-05 09:33 33.32352 -83.26494 18167 ft 382 kts 296°
2026-05-05 09:33 33.33581 -83.29285 17482 ft 381 kts 296°
2026-05-05 09:33 33.34812 -83.32083 16809 ft 382 kts 296°
2026-05-05 09:33 33.36052 -83.34903 16146 ft 380 kts 296°
2026-05-05 09:34 33.37278 -83.37692 15488 ft 377 kts 296°
2026-05-05 09:34 33.38489 -83.40449 14825 ft 374 kts 296°
2026-05-05 09:34 33.39698 -83.43206 14163 ft 378 kts 295°
2026-05-05 09:34 33.40917 -83.45986 13438 ft 375 kts 295°
2026-05-05 09:35 33.42122 -83.48738 12753 ft 370 kts 295°
2026-05-05 09:35 33.44473 -83.54108 11433 ft 363 kts 296°
2026-05-05 09:35 33.45630 -83.56754 11143 ft 349 kts 296°
2026-05-05 09:36 33.46722 -83.59247 11030 ft 330 kts 296°
2026-05-05 09:36 33.47759 -83.61621 10934 ft 312 kts 295°
2026-05-05 09:36 33.48739 -83.63864 10834 ft 296 kts 295°
2026-05-05 09:36 33.49665 -83.65990 10737 ft 282 kts 295°
2026-05-05 09:37 33.50559 -83.68042 10594 ft 273 kts 295°
2026-05-05 09:37 33.51433 -83.70054 10486 ft 272 kts 295°
2026-05-05 09:37 33.52309 -83.72072 10243 ft 274 kts 295°
2026-05-05 09:37 33.53186 -83.74092 9868 ft 272 kts 295°
2026-05-05 09:38 33.54075 -83.76140 9556 ft 283 kts 295°
2026-05-05 09:38 33.54994 -83.78258 9451 ft 288 kts 295°
2026-05-05 09:38 33.55909 -83.80361 9193 ft 281 kts 295°
2026-05-05 09:38 33.56816 -83.82450 8717 ft 281 kts 295°
2026-05-05 09:39 33.57712 -83.84515 8325 ft 278 kts 295°
2026-05-05 09:39 33.58590 -83.86541 7971 ft 276 kts 295°
2026-05-05 09:39 33.59471 -83.88574 7620 ft 273 kts 295°
2026-05-05 09:39 33.60238 -83.90643 7270 ft 269 kts 287°
2026-05-05 09:40 33.60997 -83.92688 6940 ft 269 kts 296°
2026-05-05 09:40 33.61932 -83.94653 6615 ft 270 kts 298°
2026-05-05 09:40 33.62878 -83.96601 6308 ft 270 kts 298°
2026-05-05 09:40 33.63801 -83.98556 6188 ft 270 kts 295°
2026-05-05 09:41 33.64500 -84.00644 6179 ft 271 kts 284°
2026-05-05 09:41 33.64841 -84.02855 6174 ft 269 kts 274°
2026-05-05 09:41 33.64916 -84.05099 6174 ft 268 kts 269°
2026-05-05 09:41 33.64941 -84.07327 6165 ft 268 kts 269°
2026-05-05 09:42 33.64962 -84.09570 6090 ft 268 kts 268°
2026-05-05 09:42 33.64958 -84.11750 5870 ft 262 kts 268°
2026-05-05 09:42 33.64956 -84.13931 5506 ft 257 kts 268°
2026-05-05 09:42 33.64958 -84.16069 5115 ft 255 kts 268°
2026-05-05 09:43 33.64958 -84.18163 4721 ft 252 kts 268°
2026-05-05 09:43 33.64957 -84.20275 4350 ft 248 kts 268°
2026-05-05 09:43 33.64958 -84.22309 4021 ft 235 kts 268°
2026-05-05 09:43 33.64958 -84.24194 3734 ft 216 kts 268°
2026-05-05 09:44 33.64958 -84.25926 3462 ft 199 kts 267°
2026-05-05 09:44 33.64959 -84.27488 3216 ft 184 kts 266°
2026-05-05 09:44 33.64958 -84.28974 3005 ft 168 kts 266°
2026-05-05 09:44 33.64958 -84.30318 2779 ft 157 kts 266°
2026-05-05 09:45 33.64957 -84.31567 2575 ft 143 kts 265°
2026-05-05 09:45 33.64957 -84.32706 2391 ft 131 kts 265°
2026-05-05 09:45 33.64956 -84.33789 2224 ft 128 kts 265°
2026-05-05 09:45 33.64955 -84.34851 2062 ft 127 kts 265°
2026-05-05 09:46 33.64955 -84.35915 1883 ft 127 kts 265°
2026-05-05 09:46 33.64955 -84.36980 1709 ft 128 kts 266°
2026-05-05 09:46 33.64953 -84.38045 1517 ft 128 kts 268°
2026-05-05 09:46 33.64954 -84.39075 1358 ft 126 kts 268°
2026-05-05 09:47 33.64954 -84.40130 1177 ft 126 kts 268°
2026-05-05 09:47 33.64948 -84.41177 1030 ft 125 kts 268°
2026-05-05 09:47 33.64956 -84.42100 1013 ft 78 kts 270°
2026-05-05 09:47 33.64955 -84.42455 1013 ft 30 kts 267°
2026-05-05 09:48 33.64913 -84.42669 1013 ft 17 kts 256°
2026-05-05 09:48 33.64901 -84.42710 1013 ft 5 kts 244°
2026-05-05 09:48 33.64872 -84.42781 1013 ft 12 kts 245°
2026-05-05 09:48 33.64834 -84.42821 1013 ft 0 kts 206°
2026-05-05 09:49 33.64808 -84.42837 1013 ft 16 kts 207°
2026-05-05 09:49 33.64722 -84.42874 1014 ft 13 kts 184°
2026-05-05 09:49 33.64625 -84.42842 1014 ft 20 kts 155°
2026-05-05 09:50 33.64505 -84.42778 1013 ft 13 kts 163°
2026-05-05 09:50 33.64413 -84.42734 1013 ft 16 kts 165°
2026-05-05 09:50 33.64292 -84.42731 1013 ft 19 kts 180°
2026-05-05 09:50 33.64151 -84.42731 1013 ft 22 kts 180°
2026-05-05 09:51 33.63996 -84.42732 1013 ft 22 kts 180°
2026-05-05 09:51 33.63866 -84.42734 1013 ft 15 kts 181°
2026-05-05 09:51 33.63746 -84.42732 1013 ft 18 kts 172°
2026-05-05 09:51 33.63661 -84.42676 1013 ft 13 kts 114°
2026-05-05 09:52 33.63650 -84.42562 1013 ft 13 kts 91°
2026-05-05 09:52 33.63652 -84.42435 1013 ft 17 kts 89°
2026-05-05 09:52 33.63654 -84.42279 1013 ft 20 kts 89°
2026-05-05 09:52 33.63657 -84.42094 1013 ft 24 kts 89°
2026-05-05 09:53 33.63659 -84.41886 1013 ft 27 kts 89°
2026-05-05 09:53 33.63694 -84.41769 1013 ft 14 kts 16°
2026-05-05 09:53 33.63784 -84.41773 1013 ft 14 kts 344°
2026-05-05 09:53 33.63812 -84.41829 1013 ft 13 kts 270°
2026-05-05 09:54 33.63808 -84.41903 1013 ft 0 kts 270°